Location: Sungai Lasa
(2.4500°N, 113.4500°E)
Time: 04:39:00
(UTC+00:00)

ISO - Pass Details

Date: 03 February 2023
Orbit: 527 x 70051 km, 6.5° (Epoch: 25 March)

Event Time Altitude Azimuth Distance (km) Brightness Sun altitude
Rises 21:06:31 0° 96° (E) 68,474 13.8 -23.1°
Reaches altitude 10° 21:55:39 10° 97° (E) 69,975 13.9 -11.3°
Maximum altitude 03:55:23 80° 180° (S) 68,117 14.4 68.0°
Drops below altitude 10° 10:23:35 10° 263° (W) 41,914 13.5 3.2°
Enters shadow 13:12:50 62° 298° (WNW) 1,424 3.8 -37.2°
